Geneva, Switzerland

10:50 PM CEST on June 22, 2017 (GMT +0200)
Cointrin

Weather History for LSGG - April, 2013

Change the Weather History Date:

Friday, April 12, 2013

  Actual Average Record
Temperature  
Mean Temperature 54 °F -  
Max Temperature 61 °F 59 °F 72 °F (2017)
Min Temperature 46 °F 41 °F 32 °F (1999)
Degree Days  
Heating Degree Days 12    
Growing Degree Days 4 (Base 50)    
Moisture  
Dew Point 43 °F    
Average Humidity 75    
Maximum Humidity 100    
Minimum Humidity 28    
Precipitation  
Precipitation 0.16 in 0.09 in - ()
Sea Level Pressure  
Sea Level Pressure 29.87 in    
Wind  
Wind Speed 9 mph ()    
Max Wind Speed 21 mph    
Max Gust Speed -    
Visibility 6.0 miles    
Events Rain , Thunderstorm    
Averages and records for this station are not official NWS values.
T = Trace of Precipitation, MM = Missing Value Source: Averaged Metar Reports

Daily Weather History Graph

Daily Weather History Graph

Search for Another Location

Airport or City:

Trip Planner

Search our weather history database for the weather conditions in past years. The results will help you decide how hot, cold, wet, or windy it might be!

Date:

Astronomy

Apr. 12, 2013 Rise Set
Actual Time 6:54 AM CEST 8:18 PM CEST
Civil Twilight 6:23 AM CEST 8:50 PM CEST
Nautical Twilight 5:45 AM CEST 9:28 PM CEST
Astronomical Twilight 5:05 AM CEST 10:08 PM CEST
Moon 7:47 AM CEST (4/12) 10:43 PM CEST (4/12)
Length of Visible Light 14h 26m
Length of Day
13h 24m
Waxing Crescent, 4% of the Moon is Illuminated
Apr 12
Waxing Crescent
Apr 18
First Quarter
Apr 25
Full
May 2
Last Quarter
May 10
New

Hourly Weather History & Observations

Time (CEST) Temp. Windchill Dew Point Humidity Pressure Visibility Wind Dir Wind Speed Gust Speed Precip Events Conditions
12:00 AM 51 °F - 47 °F 83% 29.73 in - South 11.5 mph - -  
12:20 AM 50.0 °F - 48.2 °F 94% 29.74 in 5.0 mi South 11.5 mph - N/A Rain Rain Showers
12:50 AM 50.0 °F - 46.4 °F 87% 29.80 in 3.7 mi South 4.6 mph - N/A Rain Rain
1:00 AM 49 °F - 45 °F 79% 29.82 in - SSW 11.5 mph - -  
1:20 AM 48.2 °F - 44.6 °F 87% 29.80 in 5.0 mi SW 13.8 mph - N/A Rain Rain
1:50 AM 48.2 °F - 46.4 °F 93% 29.83 in 5.6 mi South 10.4 mph - N/A Rain Rain
2:00 AM 48 °F - 45 °F 86% 29.85 in 5 mi South 9.2 mph - - Rain Rain
2:20 AM 48.2 °F - 46.4 °F 93% 29.83 in 6.2 mi South 10.4 mph - N/A Rain Light Rain
2:50 AM 48.2 °F - 46.4 °F 93% 29.83 in 6.2 mi Variable 3.5 mph - N/A Rain Light Rain
3:00 AM 48 °F - 46 °F 88% 29.85 in - West 2.3 mph - -  
3:50 AM 46.4 °F - 44.6 °F 93% 29.83 in 6.2 mi WSW 2.3 mph - N/A Rain Light Rain
4:00 AM 48 °F - 46 °F 89% 29.85 in - SE 2.3 mph - -  
4:20 AM 46.4 °F 45.2 °F 44.6 °F 93% 29.83 in 6.2 mi Variable 3.5 mph - N/A   Mostly Cloudy
4:50 AM 46.4 °F 45.2 °F 44.6 °F 93% 29.83 in 6.2 mi North 3.5 mph - N/A   Mostly Cloudy
5:20 AM 46.4 °F - 44.6 °F 93% 29.83 in 5.0 mi Calm Calm - N/A Rain Rain Showers
5:50 AM 46.4 °F 45.2 °F 44.6 °F 93% 29.83 in 3.7 mi Variable 3.5 mph - N/A Rain Heavy Rain Showers
6:00 AM 47 °F - 45 °F 92% 29.86 in - SSW 2.3 mph - -  
6:20 AM 46.4 °F 44.3 °F 44.6 °F 93% 29.83 in 6.2 mi SE 4.6 mph - N/A   Light Drizzle
6:50 AM 44.6 °F 42.2 °F 44.6 °F 100% 29.83 in 6.2 mi SE 4.6 mph - N/A   Mostly Cloudy
7:00 AM 47 °F - 44 °F 86% 29.86 in - SW 2.3 mph - -  
7:20 AM 46.4 °F 45.2 °F 44.6 °F 93% 29.83 in 6.2 mi WSW 3.5 mph - N/A   Mostly Cloudy
7:50 AM 46.4 °F 42.9 °F 42.8 °F 87% 29.83 in 6.2 mi SSW 6.9 mph - N/A   Mostly Cloudy
8:00 AM 46 °F - 42 °F 82% 29.87 in 6 mi SSW 5.8 mph - - Rain Heavy Rain Showers
8:20 AM 46.4 °F - 44.6 °F 93% 29.86 in 6.2 mi West 2.3 mph - N/A   Mostly Cloudy
8:50 AM 48.2 °F - 46.4 °F 93% 29.86 in 6.2 mi Variable 3.5 mph - N/A   Overcast
9:00 AM 49 °F - 45 °F 83% 29.87 in - SSW 9.2 mph - -  
9:20 AM 50.0 °F - 46.4 °F 87% 29.86 in 6.2 mi SW 10.4 mph - N/A   Overcast
9:50 AM 50.0 °F - 46.4 °F 87% 29.86 in 6.2 mi SW 11.5 mph - N/A   Overcast
10:00 AM 51 °F - 46 °F 75% 29.87 in - SW 11.5 mph - -  
10:20 AM 51.8 °F - 46.4 °F 82% 29.86 in 6.2 mi SW 10.4 mph - N/A   Mostly Cloudy
10:50 AM 53.6 °F - 42.8 °F 67% 29.86 in 6.2 mi SSW 15.0 mph - N/A   Mostly Cloudy
11:20 AM 55.4 °F - 44.6 °F 67% 29.86 in 6.2 mi SSW 13.8 mph - N/A   Partly Cloudy
11:50 AM 55.4 °F - 42.8 °F 63% 29.86 in 6.2 mi SSW 16.1 mph - N/A   Partly Cloudy
12:00 PM 57 °F - 39 °F 40% 29.86 in - SW 20.7 mph - -  
12:20 PM 55.4 °F - 39.2 °F 54% 29.86 in 6.2 mi SW 17.3 mph - N/A   Scattered Clouds
12:50 PM 57.2 °F - 39.2 °F 51% 29.86 in 6.2 mi SW 15.0 mph - N/A   Scattered Clouds
1:00 PM 59 °F - 39 °F 36% 29.85 in - SSW 18.4 mph - -  
1:20 PM 59.0 °F - 39.2 °F 48% 29.86 in 6.2 mi SSW 19.6 mph - N/A   Partly Cloudy
1:50 PM 57.2 °F - 35.6 °F 44% 29.83 in 6.2 mi SSW 20.7 mph - N/A   Scattered Clouds
2:00 PM 57 °F - 36 °F 33% 29.84 in 37 mi SW 16.1 mph - -   Partly Cloudy
2:20 PM 57.2 °F - 37.4 °F 48% 29.83 in 6.2 mi SW 16.1 mph - N/A   Mostly Cloudy
2:50 PM 59.0 °F - 37.4 °F 45% 29.83 in 6.2 mi SW 19.6 mph - N/A   Scattered Clouds
3:00 PM 61 °F - 36 °F 28% 29.81 in - SSW 20.7 mph - -  
3:20 PM 60.8 °F - 35.6 °F 39% 29.80 in 6.2 mi SSW 19.6 mph - N/A   Scattered Clouds
3:50 PM 59.0 °F - 35.6 °F 42% 29.80 in 6.2 mi SW 18.4 mph - N/A   Mostly Cloudy
4:00 PM 57 °F - 36 °F 34% 29.81 in - SW 18.4 mph - -  
4:20 PM 55.4 °F - 39.2 °F 54% 29.83 in 6.2 mi NW 18.4 mph - N/A Rain Light Rain Showers
4:25 PM 55.4 °F - 39.2 °F 54% 29.83 in 2.8 mi NW 18.4 mph - N/A Rain Heavy Rain Showers
4:50 PM 48.2 °F - 42.8 °F 82% 29.86 in 6.2 mi WNW 9.2 mph - N/A Rain Light Rain Showers
5:20 PM 50.0 °F - 42.8 °F 76% 29.89 in 6.2 mi SW 13.8 mph - N/A   Mostly Cloudy
5:50 PM 50.0 °F - 44.6 °F 82% 29.89 in 6.2 mi SSW 6.9 mph - N/A   Mostly Cloudy
6:00 PM 51 °F - 44 °F 70% 29.90 in - South 6.9 mph - -  
6:20 PM 51.8 °F - 44.6 °F 76% 29.89 in 6.2 mi South 5.8 mph - N/A Thunderstorm Thunderstorm
6:50 PM 48.2 °F - 42.8 °F 82% 29.92 in 6.2 mi WSW 5.8 mph - N/A Rain Light Rain Showers
7:00 PM 48 °F - 42 °F 73% 29.93 in - WSW 8.1 mph - -  
7:20 PM 48.2 °F - 42.8 °F 82% 29.92 in 6.2 mi SSW 9.2 mph - N/A Thunderstorm Thunderstorm
7:50 PM 50.0 °F - 42.8 °F 76% 29.92 in 6.2 mi SSW 11.5 mph - N/A   Mostly Cloudy
8:00 PM 49 °F - 42 °F 69% 29.94 in 12 mi SSW 12.7 mph - - Thunderstorm Light Thunderstorm
8:20 PM 48.2 °F - 44.6 °F 87% 29.95 in 6.2 mi SSW 13.8 mph - N/A Rain Light Rain Showers
8:50 PM 48.2 °F - 44.6 °F 87% 29.95 in 6.2 mi South 6.9 mph - N/A Rain Light Rain Showers
9:00 PM 48 °F - 43 °F 78% 29.99 in - WSW 3.5 mph - -  
9:20 PM 46.4 °F - 44.6 °F 93% 29.98 in 6.2 mi Variable 1.2 mph - N/A   Mostly Cloudy
9:50 PM 48.2 °F - 44.6 °F 87% 29.98 in 6.2 mi South 5.8 mph - N/A   Mostly Cloudy
10:00 PM 49 °F - 40 °F 62% 30.02 in - SW 11.5 mph - -  
10:20 PM 50.0 °F - 41.0 °F 71% 30.01 in 6.2 mi SW 11.5 mph - N/A   Mostly Cloudy
10:50 PM 48.2 °F - 41.0 °F 76% 30.04 in 6.2 mi SW 10.4 mph - N/A Rain Light Rain Showers
11:20 PM 48.2 °F - 41.0 °F 76% 30.04 in 6.2 mi WSW 9.2 mph - N/A   Mostly Cloudy
11:50 PM 46.4 °F 42.9 °F 41.0 °F 81% 30.04 in 6.2 mi WSW 6.9 mph - N/A   Scattered Clouds